Location: Canazei
(46.4667°N, 11.7667°E)
Time: 17:38:39
(UTC+00:00)

Cosmos 1818 - Pass Details

Date: 21 April 2021
Orbit: 772 x 802 km, 65.0° (Epoch: 11 May)

Event Time Altitude Azimuth Distance (km) Brightness Sun altitude
Rises 02:44:37 0° 325° (NW) 3,320 6.8 -14.7°
Reaches altitude 10° 02:47:07 10° 330° (NNW) 2,387 6.1 -14.4°
Maximum altitude 02:52:31 55° 48° (NE) 959 4.4 -13.6°
Drops below altitude 10° 02:57:52 10° 126° (SE) 2,368 6.3 -12.8°
Sets 03:00:20 0° 131° (SE) 3,292 7.0 -12.5°
